Time,TemperatureF,DewpointF,PressureIn,WindDirection,WindDirectionDegrees,WindSpeedMPH,WindSpeedGustMPH,Humidity,HourlyPrecipIn,Conditions,Clouds,dailyrainin,SolarRadiationWatts/m^2,SoftwareType,DateUTC
2013-04-28 00:42:00,67.0,27.0,30.17,WNW,299,14.0,20.0,22,0.00,,,0.00,0.000000,,2013-04-28 07:42:00,
2013-04-28 00:52:00,67.0,27.0,30.17,WNW,299,14.0,20.0,22,0.00,,,0.00,0.000000,,2013-04-28 07:52:00,
2013-04-28 01:01:00,67.0,27.0,30.17,WNW,299,14.0,20.0,22,0.00,,,0.00,0.000000,,2013-04-28 08:01:00,
2013-04-28 01:11:00,67.0,27.0,30.17,WNW,299,14.0,20.0,22,0.00,,,0.00,0.000000,,2013-04-28 08:11:00,
2013-04-28 01:42:00,66.0,28.0,30.16,NW,313,17.0,20.0,24,0.00,,,0.00,0.000000,,2013-04-28 08:42:00,
2013-04-28 01:52:00,66.0,28.0,30.16,NW,313,17.0,20.0,24,0.00,,,0.00,0.000000,,2013-04-28 08:52:00,
2013-04-28 02:01:00,66.0,28.0,30.16,NW,313,17.0,20.0,24,0.00,,,0.00,0.000000,,2013-04-28 09:01:00,
2013-04-28 02:11:00,66.0,28.0,30.16,NW,313,17.0,20.0,24,0.00,,,0.00,0.000000,,2013-04-28 09:11:00,
2013-04-28 02:42:00,67.0,28.0,30.15,NNW,332,21.0,26.0,23,0.00,,,-99.99,0.000000,,2013-04-28 09:42:00,
2013-04-28 02:53:00,67.0,28.0,30.15,NNW,332,21.0,26.0,23,0.00,,,-99.99,0.000000,,2013-04-28 09:53:00,
2013-04-28 03:02:00,67.0,28.0,30.15,NNW,332,21.0,26.0,23,0.00,,,-99.99,0.000000,,2013-04-28 10:02:00,
2013-04-28 03:12:00,67.0,28.0,30.15,NNW,332,21.0,26.0,23,0.00,,,-99.99,0.000000,,2013-04-28 10:12:00,
2013-04-28 03:42:00,66.0,35.0,30.14,NNW,329,18.0,23.0,32,0.00,,,0.00,0.000000,,2013-04-28 10:42:00,
2013-04-28 03:52:00,66.0,35.0,30.14,NNW,329,18.0,23.0,32,0.00,,,0.00,0.000000,,2013-04-28 10:52:00,
2013-04-28 04:02:00,66.0,35.0,30.14,NNW,329,18.0,23.0,32,0.00,,,0.00,0.000000,,2013-04-28 11:02:00,
2013-04-28 04:11:00,66.0,35.0,30.14,NNW,329,18.0,23.0,32,0.00,,,0.00,0.000000,,2013-04-28 11:11:00,
2013-04-28 04:42:00,65.0,32.0,30.13,NNW,334,20.0,21.0,29,0.00,,,0.00,0.000000,,2013-04-28 11:42:00,
2013-04-28 04:52:00,65.0,32.0,30.13,NNW,334,20.0,21.0,29,0.00,,,0.00,0.000000,,2013-04-28 11:52:00,
2013-04-28 05:01:00,65.0,32.0,30.13,NNW,334,20.0,21.0,29,0.00,,,0.00,0.000000,,2013-04-28 12:01:00,
2013-04-28 05:11:00,65.0,32.0,30.13,NNW,334,20.0,21.0,29,0.00,,,0.00,0.000000,,2013-04-28 12:11:00,
2013-04-28 05:42:00,66.0,33.0,30.12,NW,320,17.0,24.0,29,-99.99,,,0.00,0.000000,,2013-04-28 12:42:00,
2013-04-28 05:52:00,66.0,33.0,30.12,NW,320,17.0,24.0,29,-99.99,,,0.00,0.000000,,2013-04-28 12:52:00,
2013-04-28 06:02:00,66.0,33.0,30.12,NW,320,17.0,24.0,29,-99.99,,,0.00,0.000000,,2013-04-28 13:02:00,
2013-04-28 06:11:00,66.0,33.0,30.12,NW,320,17.0,24.0,29,-99.99,,,0.00,0.000000,,2013-04-28 13:11:00,
2013-04-28 06:42:00,66.0,30.0,30.12,NNW,328,17.0,19.0,26,0.00,,,0.00,0.000000,,2013-04-28 13:42:00,
2013-04-28 06:52:00,66.0,30.0,30.12,NNW,328,17.0,19.0,26,0.00,,,0.00,0.000000,,2013-04-28 13:52:00,
2013-04-28 07:01:00,66.0,30.0,30.12,NNW,328,17.0,19.0,26,0.00,,,0.00,0.000000,,2013-04-28 14:01:00,
2013-04-28 07:11:00,66.0,30.0,30.12,NNW,328,17.0,19.0,26,0.00,,,0.00,0.000000,,2013-04-28 14:11:00,
2013-04-28 07:42:00,66.0,29.0,30.13,NNW,330,16.0,19.0,25,-99.99,,,0.00,0.000000,,2013-04-28 14:42:00,
2013-04-28 07:52:00,66.0,29.0,30.13,NNW,330,16.0,19.0,25,-99.99,,,0.00,0.000000,,2013-04-28 14:52:00,
2013-04-28 08:01:00,66.0,29.0,30.13,NNW,330,16.0,19.0,25,-99.99,,,0.00,0.000000,,2013-04-28 15:01:00,
2013-04-28 08:12:00,66.0,29.0,30.13,NNW,330,16.0,19.0,25,-99.99,,,0.00,0.000000,,2013-04-28 15:12:00,
2013-04-28 08:42:00,68.0,34.0,30.14,NNW,337,13.0,17.0,28,0.00,,,0.00,28.000000,,2013-04-28 15:42:00,
2013-04-28 08:53:00,68.0,34.0,30.14,NNW,337,13.0,17.0,28,0.00,,,0.00,28.000000,,2013-04-28 15:53:00,
2013-04-28 09:03:00,68.0,34.0,30.14,NNW,337,13.0,17.0,28,0.00,,,0.00,28.000000,,2013-04-28 16:03:00,
2013-04-28 09:13:00,68.0,34.0,30.14,NNW,337,13.0,17.0,28,0.00,,,0.00,28.000000,,2013-04-28 16:13:00,
2013-04-28 09:43:00,70.0,34.0,30.14,North,353,4.0,15.0,27,0.00,,,0.00,151.000000,,2013-04-28 16:43:00,
2013-04-28 09:52:00,70.0,34.0,30.14,North,353,4.0,15.0,27,0.00,,,0.00,151.000000,,2013-04-28 16:52:00,
2013-04-28 10:02:00,70.0,34.0,30.14,North,353,4.0,15.0,27,0.00,,,0.00,151.000000,,2013-04-28 17:02:00,
2013-04-28 10:12:00,70.0,34.0,30.14,North,353,4.0,15.0,27,0.00,,,0.00,151.000000,,2013-04-28 17:12:00,
2013-04-28 10:43:00,70.0,37.0,30.14,North,1,6.0,10.0,30,0.00,,,0.00,429.000000,,2013-04-28 17:43:00,
2013-04-28 10:52:00,70.0,37.0,30.14,North,1,6.0,10.0,30,0.00,,,0.00,429.000000,,2013-04-28 17:52:00,
2013-04-28 11:02:00,70.0,37.0,30.14,North,1,6.0,10.0,30,0.00,,,0.00,429.000000,,2013-04-28 18:02:00,
2013-04-28 11:42:00,68.0,42.0,30.15,NNW,347,4.0,11.0,39,0.00,,,0.00,638.000000,,2013-04-28 18:42:00,
2013-04-28 11:52:00,68.0,42.0,30.15,NNW,347,4.0,11.0,39,0.00,,,0.00,638.000000,,2013-04-28 18:52:00,
2013-04-28 12:01:00,68.0,42.0,30.15,NNW,347,4.0,11.0,39,0.00,,,0.00,638.000000,,2013-04-28 19:01:00,
2013-04-28 12:11:00,68.0,42.0,30.15,NNW,347,4.0,11.0,39,0.00,,,0.00,638.000000,,2013-04-28 19:11:00,
2013-04-28 12:42:00,68.0,41.0,30.16,NNE,14,4.0,9.0,38,0.00,,,0.00,819.000000,,2013-04-28 19:42:00,
2013-04-28 12:52:00,68.0,41.0,30.16,NNE,14,4.0,9.0,38,0.00,,,0.00,819.000000,,2013-04-28 19:52:00,
2013-04-28 13:01:00,68.0,41.0,30.16,NNE,14,4.0,9.0,38,0.00,,,0.00,819.000000,,2013-04-28 20:01:00,
2013-04-28 13:11:00,68.0,41.0,30.16,NNE,14,4.0,9.0,38,0.00,,,0.00,819.000000,,2013-04-28 20:11:00,
2013-04-28 13:42:00,67.0,39.0,30.15,East,81,4.0,9.0,36,0.00,,,0.00,953.000000,,2013-04-28 20:42:00,
2013-04-28 13:52:00,67.0,39.0,30.15,East,81,4.0,9.0,36,0.00,,,0.00,953.000000,,2013-04-28 20:52:00,
2013-04-28 14:01:00,67.0,39.0,30.15,East,81,4.0,9.0,36,0.00,,,0.00,953.000000,,2013-04-28 21:01:00,
2013-04-28 14:11:00,67.0,39.0,30.15,East,81,4.0,9.0,36,0.00,,,0.00,953.000000,,2013-04-28 21:11:00,
2013-04-28 14:42:00,71.0,40.0,30.14,NE,36,4.0,12.0,32,0.00,,,0.00,1020.000000,,2013-04-28 21:42:00,
2013-04-28 14:53:00,71.0,40.0,30.14,NE,36,4.0,12.0,32,0.00,,,0.00,1020.000000,,2013-04-28 21:53:00,
2013-04-28 15:02:00,71.0,40.0,30.14,NE,36,4.0,12.0,32,0.00,,,0.00,1020.000000,,2013-04-28 22:02:00,
2013-04-28 15:12:00,71.0,40.0,30.14,NE,36,4.0,12.0,32,0.00,,,0.00,1020.000000,,2013-04-28 22:12:00,
2013-04-28 15:42:00,73.0,45.0,30.12,South,185,3.0,9.0,37,0.00,,,0.00,1031.000000,,2013-04-28 22:42:00,
2013-04-28 15:52:00,73.0,45.0,30.12,South,185,3.0,9.0,37,0.00,,,0.00,1031.000000,,2013-04-28 22:52:00,
2013-04-28 16:02:00,73.0,45.0,30.12,South,185,3.0,9.0,37,0.00,,,0.00,1031.000000,,2013-04-28 23:02:00,
2013-04-28 16:11:00,73.0,45.0,30.12,South,185,3.0,9.0,37,0.00,,,0.00,1031.000000,,2013-04-28 23:11:00,
2013-04-28 16:42:00,68.0,41.0,30.09,North,359,4.0,10.0,38,0.00,,,0.00,956.000000,,2013-04-28 23:42:00,
2013-04-28 16:52:00,68.0,41.0,30.09,North,359,4.0,10.0,38,0.00,,,0.00,956.000000,,2013-04-28 23:52:00,
2013-04-28 17:01:00,68.0,41.0,30.09,North,359,4.0,10.0,38,0.00,,,0.00,956.000000,,2013-04-29 00:01:00,
2013-04-28 17:11:00,68.0,41.0,30.09,North,359,4.0,10.0,38,0.00,,,0.00,956.000000,,2013-04-29 00:11:00,
2013-04-28 17:42:00,72.0,44.0,30.08,NW,319,5.0,15.0,36,0.00,,,0.00,809.000000,,2013-04-29 00:42:00,
2013-04-28 17:52:00,72.0,44.0,30.08,NW,319,5.0,15.0,36,0.00,,,0.00,809.000000,,2013-04-29 00:52:00,
2013-04-28 18:01:00,72.0,44.0,30.08,NW,319,5.0,15.0,36,0.00,,,0.00,809.000000,,2013-04-29 01:01:00,
2013-04-28 18:12:00,72.0,44.0,30.08,NW,319,5.0,15.0,36,0.00,,,0.00,809.000000,,2013-04-29 01:12:00,
2013-04-28 18:42:00,69.0,42.0,30.07,NE,36,6.0,17.0,37,0.00,,,0.00,543.000000,,2013-04-29 01:42:00,
2013-04-28 18:52:00,69.0,42.0,30.07,NE,36,6.0,17.0,37,0.00,,,0.00,543.000000,,2013-04-29 01:52:00,
2013-04-28 19:01:00,69.0,42.0,30.07,NE,36,6.0,17.0,37,0.00,,,0.00,543.000000,,2013-04-29 02:01:00,
2013-04-28 19:11:00,69.0,42.0,30.07,NE,36,6.0,17.0,37,0.00,,,0.00,543.000000,,2013-04-29 02:11:00,
2013-04-28 19:42:00,66.0,42.0,30.06,NW,305,12.0,22.0,42,0.00,,,0.00,280.000000,,2013-04-29 02:42:00,
2013-04-28 19:52:00,66.0,42.0,30.06,NW,305,12.0,22.0,42,0.00,,,0.00,280.000000,,2013-04-29 02:52:00,
2013-04-28 20:01:00,66.0,42.0,30.06,NW,305,12.0,22.0,42,0.00,,,0.00,280.000000,,2013-04-29 03:01:00,
2013-04-28 20:12:00,66.0,42.0,30.06,NW,305,12.0,22.0,42,0.00,,,0.00,280.000000,,2013-04-29 03:12:00,
2013-04-28 20:43:00,67.0,34.0,30.04,NW,305,12.0,21.0,29,0.00,,,0.00,212.000000,,2013-04-29 03:43:00,
2013-04-28 20:53:00,67.0,34.0,30.04,NW,305,12.0,21.0,29,0.00,,,0.00,212.000000,,2013-04-29 03:53:00,
2013-04-28 21:02:00,67.0,34.0,30.04,NW,305,12.0,21.0,29,0.00,,,0.00,212.000000,,2013-04-29 04:02:00,
2013-04-28 21:12:00,67.0,34.0,30.04,NW,305,12.0,21.0,29,0.00,,,0.00,212.000000,,2013-04-29 04:12:00,
2013-04-28 21:43:00,67.0,37.0,30.05,NW,325,18.0,24.0,33,0.00,,,0.00,54.000000,,2013-04-29 04:43:00,
2013-04-28 21:52:00,67.0,37.0,30.05,NW,325,18.0,24.0,33,0.00,,,0.00,54.000000,,2013-04-29 04:52:00,
2013-04-28 22:02:00,67.0,37.0,30.05,NW,325,18.0,24.0,33,0.00,,,0.00,54.000000,,2013-04-29 05:02:00,
2013-04-28 22:12:00,67.0,37.0,30.05,NW,325,18.0,24.0,33,0.00,,,0.00,54.000000,,2013-04-29 05:12:00,
2013-04-28 22:42:00,66.0,45.0,30.06,NW,310,17.0,25.0,46,0.00,,,0.00,0.000000,,2013-04-29 05:42:00,
2013-04-28 22:52:00,66.0,45.0,30.06,NW,310,17.0,25.0,46,0.00,,,0.00,0.000000,,2013-04-29 05:52:00,
2013-04-28 23:02:00,66.0,45.0,30.06,NW,310,17.0,25.0,46,0.00,,,0.00,0.000000,,2013-04-29 06:02:00,
2013-04-28 23:11:00,66.0,45.0,30.06,NW,310,17.0,25.0,46,0.00,,,0.00,0.000000,,2013-04-29 06:11:00,
2013-04-28 23:42:00,66.0,42.0,30.04,WNW,294,20.0,28.0,42,0.00,,,0.00,0.000000,,2013-04-29 06:42:00,
2013-04-28 23:52:00,66.0,42.0,30.04,WNW,294,20.0,28.0,42,0.00,,,0.00,0.000000,,2013-04-29 06:52:00,